Temperature
15 15 16 16 13 11 13 13 14 15 15 16 16 16 14 13 14 14 13 13 14 14 14 14 14 14 15 15 15 15 15 15 15 15 15 15 15 15 15 15 15 15 14 14 14 14 14 14 14
15 15 16 15 11 12 13 13 14 15 16 16 16 15 13 12 12 12 12 13 13 14 14 14 14 14 14 14 14 15 15 15 15 15 15 15 15 15 14 14 14 14 14 14 14 14 14 14 14
14 15 15 11 11 12 13 14 13 14 16 16 14 13 12 11 11 12 12 12 13 13 13 14 14 14 14 14 14 14 14 14 14 14 14 14 14 14 14 14 14 14 14 14 14 14 14 14 14
14 14 14 10 11 12 13 13 14 14 15 15 14 11 11 10 11 11 12 12 13 13 13 13 13 13 14 14 14 14 14 14 14 14 14 14 14 14 14 14 14 14 14 14 14 14 14 14 14
14 14 11 10 11 11 12 13 14 13 13 13 13 11 10 10 11 11 12 12 12 13 13 13 13 13 13 13 13 14 14 14 14 14 14 14 14 14 14 14 14 14 14 14 14 14 14 14 14
13 11 10 10 11 12 12 13 13 12 12 12 12 10 9 10 11 11 11 11 12 12 12 12 13 13 13 13 13 13 13 13 13 14 14 14 14 14 14 14 14 14 14 14 13 13 13 13 13
12 9 10 10 11 11 12 13 11 10 10 11 11 9 9 9 10 10 11 11 11 12 12 12 12 12 12 13 13 13 13 13 13 13 13 13 13 14 14 14 13 13 13 13 13 13 13 13 13
11 9 10 10 10 11 11 12 11 11 10 11 11 9 8 8 9 10 10 11 11 11 11 11 11 12 12 12 12 12 13 13 13 13 13 13 13 13 13 13 13 13 13 13 13 13 13 13 13
11 8 8 9 10 10 11 10 10 10 10 9 9 9 9 8 9 9 10 10 10 10 11 11 11 11 11 11 12 12 12 12 12 12 12 12 13 13 13 13 13 13 13 13 13 13 13 13 13
9 7 8 9 9 9 9 9 9 9 8 8 8 8 8 8 8 9 9 9 9 10 10 10 10 10 11 11 11 11 11 11 12 12 12 12 12 12 12 12 12 12 13 13 12 12 12 12 12
8 7 8 9 9 9 8 8 8 8 7 7 7 7 7 8 8 8 8 8 8 8 9 9 9 9 10 10 10 11 11 11 11 11 11 11 12 12 12 12 12 12 12 12 12 12 12 12 12
7 7 8 8 8 8 7 7 7 7 7 8 8 7 7 7 7 7 7 7 7 8 8 8 8 9 9 9 10 10 10 10 10 10 10 11 11 11 11 12 12 12 12 12 12 12 12 12 12
6 6 7 7 7 7 7 6 6 6 7 7 7 7 6 6 6 6 6 6 7 7 7 7 8 8 8 9 9 9 9 10 10 10 10 10 10 11 11 11 11 11 11 11 12 12 12 12 11
6 6 6 6 6 6 6 5 5 5 6 6 6 6 6 6 6 6 6 6 6 6 7 7 7 7 8 8 8 8 9 9 9 9 10 10 10 10 10 10 11 11 11 11 11 11 11 11 11
6 5 5 6 6 6 6 5 4 5 6 6 5 5 5 5 5 5 5 5 5 6 6 6 7 7 7 7 7 8 8 8 8 9 9 9 9 10 10 10 10 10 10 10 11 11 11 11 11
5 5 4 5 5 6 6 5 4 5 5 5 4 4 4 4 4 4 5 5 5 5 5 6 6 6 6 7 7 7 7 8 8 8 8 9 9 9 9 9 10 10 10 10 10 10 10 10 10
4 3 4 5 5 5 5 4 4 4 4 4 3 3 3 3 4 4 4 4 5 5 5 5 5 6 6 6 6 7 7 7 7 7 8 8 8 9 9 9 9 9 9 9 9 9 9 10 10
3 3 4 4 4 4 4 3 3 3 3 3 3 3 3 3 3 3 3 4 4 4 4 4 5 5 5 5 6 6 6 6 7 7 7 8 8 8 8 8 8 8 9 9 9 9 9 9 9
4 4 4 4 4 4 3 3 3 2 2 2 1 2 2 2 2 2 3 3 4 4 4 4 4 4 4 5 5 5 6 6 6 6 7 7 7 8 8 8 8 8 8 8 8 8 8 8 8
4 3 3 3 4 4 3 3 2 2 1 1 1 1 1 1 2 2 2 2 3 3 3 3 3 3 4 4 4 4 4 5 5 5 6 6 7 7 7 7 8 8 8 8 8 8 8 8 8
3 3 2 3 3 3 3 2 2 1 1 1 0 0 1 1 1 1 1 1 2 2 2 2 2 3 3 3 3 3 4 4 4 5 5 6 6 6 7 7 7 7 7 7 7 7 8 7 8
2 3 3 2 2 1 2 2 1 1 0 -0 -1 -0 -0 0 0 0 1 1 1 1 1 2 2 2 2 2 2 2 2 3 3 4 4 5 5 6 6 6 6 7 7 7 7 7 7 7 7
2 3 2 2 1 1 1 1 1 0 -0 -1 -1 -1 -1 -0 -0 0 0 0 0 0 1 1 1 1 2 1 1 2 2 2 2 3 3 4 5 5 5 5 6 6 6 6 6 6 6 6 7
2 2 1 0 0 1 1 0 1 -1 -1 -1 -2 -2 -1 -1 -1 -0 -0 -0 -0 0 0 0 1 1 1 1 1 1 1 1 2 2 2 3 4 4 5 5 5 5 5 6 6 6 6 6 6
1 0 1 1 0 1 0 0 -1 -2 -2 -2 -2 -2 -2 -1 -1 -1 -1 -0 -1 -0 -0 -0 -0 0 0 0 0 1 1 1 1 1 2 2 3 3 4 4 4 5 5 5 5 5 5 5 6
-0 0 1 1 0 -0 -1 -1 -2 -2 -2 -2 -2 -2 -2 -2 -1 -1 -1 -1 -1 -1 -1 -1 -1 -1 -1 -0 -0 0 0 0 1 1 1 2 2 2 3 3 3 4 4 4 5 5 5 5 5
-0 -1 -1 -1 -2 -2 -2 -2 -2 -2 -2 -3 -3 -3 -2 -2 -2 -2 -1 -1 -2 -1 -1 -1 -1 -1 -1 -1 -1 -1 -0 -0 0 0 1 1 1 2 2 2 3 3 4 4 4 4 4 5 5
-1 -2 -2 -2 -1 -1 -2 -2 -2 -2 -3 -3 -3 -3 -3 -2 -2 -2 -2 -2 -2 -2 -2 -2 -2 -2 -2 -2 -1 -1 -1 -1 -0 -0 0 1 1 1 1 2 2 3 3 3 4 4 4 4 4
-2 -2 -3 -3 -3 -2 -2 -2 -3 -3 -3 -4 -4 -3 -3 -3 -3 -3 -3 -2 -2 -2 -2 -2 -2 -2 -2 -2 -2 -2 -1 -1 -1 -1 -0 0 1 1 1 1 2 2 2 3 3 3 3 3 4
-3 -3 -4 -2 -3 -4 -3 -3 -3 -4 -4 -4 -4 -4 -3 -3 -3 -3 -3 -3 -3 -3 -3 -3 -3 -3 -3 -2 -2 -2 -2 -2 -1 -1 -1 -1 -0 0 0 0 1 1 2 2 2 2 3 3 3
Wind_Speed
15 12 2 4 5 4 2 3 2 0 0 0 2 6 8 6 4 4 0 3 4 3 2 4 6 8 9 10 11 11 11 11 11 12 12 12 13 13 13 13 13 13 13 14 14 15 15 15 15
10 4 4 5 5 2 3 3 1 1 2 2 4 6 8 6 4 5 3 3 4 4 4 4 6 8 9 10 10 11 11 11 11 11 12 12 12 12 12 12 13 13 13 13 13 14 14 14 14
7 2 4 4 4 6 5 3 5 1 2 2 4 6 5 4 3 2 1 3 5 6 6 5 8 8 9 9 9 10 10 11 11 11 11 11 11 11 11 11 12 13 13 13 13 13 13 13 13
3 4 4 3 4 4 3 2 3 1 3 4 4 6 5 4 2 2 3 5 5 6 7 7 9 9 9 9 9 9 10 10 10 10 10 11 11 11 11 11 12 12 12 12 12 12 12 12 12
4 4 3 1 4 2 1 1 1 2 1 3 4 6 4 5 5 6 5 6 6 6 7 7 10 10 10 9 8 9 9 9 10 10 10 10 11 11 11 11 11 11 12 12 11 11 12 12 12
3 3 3 5 4 2 1 2 2 2 2 3 4 5 3 4 6 5 5 6 6 7 7 7 8 9 9 9 9 8 9 9 9 9 9 9 10 10 11 11 10 10 11 11 10 10 11 11 12
3 3 4 4 3 2 1 1 2 2 2 2 2 5 3 4 4 4 5 6 7 8 8 8 8 8 8 9 9 9 8 8 9 9 9 9 9 9 10 10 10 10 10 10 10 10 10 11 11
3 3 1 1 3 3 1 1 1 2 2 1 3 6 3 0 3 5 6 6 6 8 8 8 8 8 7 7 8 9 8 8 8 8 9 9 9 8 8 9 9 9 9 9 9 9 9 10 10
3 2 2 2 3 2 1 1 2 2 4 4 4 4 3 4 5 7 7 6 6 7 6 8 8 7 7 6 6 7 7 7 7 7 7 7 7 7 7 7 8 8 8 8 8 8 9 9 9
3 3 3 0 1 2 2 2 1 2 3 3 5 5 6 7 7 7 6 5 5 5 5 6 7 7 6 5 5 5 5 5 5 5 6 5 6 6 6 7 7 7 7 7 7 7 7 8 7
2 3 2 2 2 2 1 2 2 3 1 2 4 5 5 7 7 6 5 4 2 2 3 5 6 6 6 5 4 4 4 4 4 4 5 5 5 5 5 5 5 6 6 5 6 6 6 6 6
2 1 0 1 2 2 1 1 2 2 2 3 7 8 6 6 5 5 4 3 2 2 3 3 6 6 6 5 4 3 3 2 2 2 3 4 3 3 3 3 4 4 4 3 4 4 4 5 6
1 0 2 2 4 3 2 1 1 0 2 4 7 8 7 6 5 4 4 4 3 2 3 3 5 5 5 4 4 3 2 2 1 1 1 3 3 2 2 2 3 4 4 4 3 3 3 3 4
2 1 0 2 2 1 1 1 1 2 2 6 8 7 6 6 5 5 5 4 3 3 3 3 3 5 5 4 4 3 3 2 1 1 1 2 2 2 2 2 2 3 4 4 4 3 2 2 3
1 2 2 2 1 1 1 2 3 3 4 6 7 6 6 5 5 5 4 3 3 3 3 3 3 4 4 4 4 3 3 2 1 2 1 1 2 3 2 2 2 2 4 4 3 3 3 2 1
2 2 1 3 1 2 2 4 3 3 6 6 6 5 5 5 5 4 4 4 4 4 4 4 4 4 4 4 4 3 3 3 2 2 2 2 2 3 2 2 2 3 4 3 2 2 1 1 1
2 1 3 3 2 1 2 4 3 3 6 7 6 5 5 4 5 4 4 4 4 4 4 4 4 3 4 4 4 3 3 3 3 2 2 3 2 3 2 2 3 4 3 2 3 2 2 2 1
3 3 3 4 2 1 3 4 2 2 5 7 6 5 4 4 3 3 4 4 5 4 4 4 4 4 4 4 3 3 3 3 4 3 3 4 2 2 2 2 3 4 2 2 2 2 2 2 2
3 3 4 4 2 2 4 5 4 2 4 5 4 4 3 2 2 3 4 5 5 5 6 5 4 4 3 2 2 2 3 3 4 4 4 4 3 2 2 2 3 4 4 4 4 2 3 2 1
1 2 3 3 2 2 2 3 2 3 4 5 5 4 3 2 3 3 4 5 4 4 5 5 5 4 3 2 2 2 3 3 4 5 5 5 4 2 2 2 2 3 3 4 4 3 3 2 3
2 2 3 4 5 2 1 2 0 2 3 4 4 3 2 2 1 3 4 4 4 4 4 5 5 5 4 3 2 3 3 3 3 4 4 5 5 3 3 3 3 3 4 5 5 5 5 4 3
3 3 3 4 1 2 1 2 3 2 2 2 2 2 1 1 1 2 3 4 4 4 4 4 4 5 5 3 2 2 2 4 5 4 4 5 5 4 3 3 3 3 3 4 5 4 3 5 5
4 4 4 4 3 1 1 2 4 1 2 2 1 0 1 1 1 2 3 3 4 4 4 4 5 5 5 4 2 2 3 4 4 4 4 4 5 4 3 3 3 3 3 3 4 4 4 4 5
3 2 1 2 2 1 3 4 4 3 4 2 1 1 1 2 2 2 3 3 4 4 4 4 4 5 5 4 3 2 3 5 5 5 4 4 4 4 3 3 3 4 4 4 4 5 5 5 5
4 3 3 3 1 4 1 2 4 2 2 3 2 1 2 2 3 3 4 5 5 5 5 5 5 6 5 5 4 3 3 4 4 5 4 4 4 4 3 4 4 4 4 5 5 5 6 6 6
2 2 2 2 3 3 3 3 3 2 0 1 1 0 2 2 3 3 4 4 5 5 5 5 5 6 6 5 5 4 3 3 3 4 4 4 4 4 4 4 4 4 4 4 4 4 5 6 6
1 1 1 3 1 2 4 4 4 0 1 2 2 2 2 3 4 4 4 4 4 5 5 5 5 6 6 6 5 5 4 4 4 4 4 4 4 4 4 4 4 4 4 4 4 4 5 5 6
2 2 3 3 1 3 4 4 3 3 3 2 3 3 4 5 5 5 4 4 4 4 5 5 4 5 6 6 5 5 5 4 4 4 4 5 4 5 4 4 3 3 3 3 3 3 4 4 5
2 2 2 2 2 3 3 5 3 4 3 2 4 4 5 5 6 5 5 5 5 5 5 5 5 6 6 6 6 6 5 5 4 4 5 5 5 5 4 4 4 4 3 3 3 3 4 4 4
3 3 4 3 3 3 3 6 2 2 2 2 3 5 5 5 5 5 5 5 5 5 6 5 5 5 6 6 6 6 5 5 5 5 5 5 5 5 4 4 4 4 4 3 3 4 4 5 5
Wind_Direction
332 330 30 55 62 63 213 263 253 28 76 43 72 92 102 90 93 126 62 47 40 39 71 107 106 101 100 100 100 97 97 99 100 100 102 102 103 102 103 103 102 100 99 98 97 95 95 93 92
330 339 50 64 105 145 247 246 193 218 187 120 72 76 80 69 58 86 44 41 59 53 61 82 92 99 97 100 102 100 98 100 101 100 100 100 103 104 105 105 103 102 101 102 101 99 97 95 94
330 22 79 87 138 184 194 214 193 213 15 61 76 56 81 77 60 59 23 81 59 50 51 63 78 89 91 93 101 104 102 100 101 101 100 100 100 102 108 108 105 104 103 104 104 101 98 97 96
35 44 60 96 188 215 183 218 199 196 15 29 97 76 69 42 32 38 94 82 77 51 54 58 66 72 83 88 93 101 105 103 102 103 102 102 101 101 104 108 107 106 107 105 106 104 100 96 94
59 79 92 181 215 216 238 293 120 96 54 23 85 101 74 6 50 87 92 84 87 58 58 63 62 64 66 73 88 94 99 104 105 104 104 104 103 102 102 104 106 108 109 109 107 107 103 98 97
58 80 130 203 207 200 275 334 85 74 57 30 71 103 103 34 56 82 85 79 73 67 58 66 61 59 60 62 66 87 92 93 101 105 104 106 105 104 105 103 104 109 111 111 109 106 104 100 100
107 119 173 181 179 182 227 338 83 118 67 26 74 100 117 26 47 75 83 75 65 63 53 53 57 57 59 59 62 62 84 92 95 101 103 103 104 104 105 105 104 105 110 112 109 105 100 101 101
116 112 160 186 172 192 247 110 81 95 110 34 76 112 138 318 64 72 78 76 68 57 46 42 46 49 50 58 63 58 66 87 93 97 102 108 108 108 108 105 106 107 107 110 109 104 99 97 102
76 96 192 203 174 181 112 111 10 53 88 61 63 99 135 125 90 77 69 59 53 50 39 35 34 37 43 56 59 63 66 74 93 100 101 105 109 111 112 109 108 112 111 109 110 106 101 95 97
80 169 199 170 121 118 56 83 84 70 77 64 53 59 90 102 98 92 87 71 51 41 32 25 25 26 34 46 53 63 66 65 76 97 100 104 111 117 119 123 120 116 114 111 108 111 104 97 98
102 166 188 7 38 71 61 44 30 121 108 141 129 120 110 103 96 92 91 93 84 63 33 22 17 22 28 30 43 48 50 53 56 82 99 105 105 110 116 119 121 120 117 109 108 106 106 106 107
101 12 327 318 355 15 29 69 39 83 163 142 137 132 116 107 99 93 90 81 69 57 29 20 17 18 22 26 28 40 33 33 34 41 105 111 102 99 118 122 130 129 128 112 114 107 109 115 118
121 301 347 10 38 38 42 59 120 95 147 123 114 109 111 106 96 87 80 68 60 46 16 8 14 20 17 17 15 19 9 20 18 13 130 137 128 129 141 142 150 144 141 132 122 119 103 114 125
155 131 344 329 355 329 114 304 117 224 148 118 112 110 105 97 84 74 63 47 39 26 5 360 14 18 13 4 353 357 353 345 344 308 279 169 168 164 159 162 160 155 152 153 151 141 121 119 122
91 69 355 287 274 225 119 317 237 216 153 129 122 113 96 83 76 70 58 48 34 23 8 6 19 13 5 356 346 350 338 325 322 291 270 223 192 189 178 187 188 178 169 160 150 139 118 120 113
56 65 295 273 237 232 161 246 244 199 148 144 135 121 103 83 70 58 44 37 31 28 14 7 10 3 356 353 345 341 334 334 308 291 285 273 215 202 184 199 204 187 173 158 153 161 149 163 150
37 237 248 272 226 198 194 237 246 195 153 149 141 129 113 86 57 44 33 27 28 27 14 6 8 3 354 350 345 344 342 339 326 310 313 301 247 210 194 208 204 186 173 169 180 181 174 177 175
219 232 249 247 233 222 231 244 274 211 151 145 139 132 120 100 60 37 27 22 25 22 17 7 7 2 357 353 350 356 353 347 340 326 320 311 275 233 213 207 201 189 185 192 190 181 180 179 174
216 226 259 264 256 242 233 252 264 173 134 130 125 123 115 102 47 36 32 26 26 21 17 5 3 357 359 356 345 338 325 318 321 320 311 312 298 256 230 223 212 206 200 199 189 179 176 176 150
258 264 283 299 296 265 242 275 275 132 144 140 134 123 109 69 34 24 23 24 20 15 9 359 359 348 346 330 318 309 304 298 305 309 315 307 298 275 246 227 220 219 207 197 196 176 175 187 173
290 217 246 278 306 296 197 295 284 103 98 96 103 113 109 108 45 8 10 8 4 2 354 349 346 343 339 341 344 341 339 330 320 318 316 315 302 281 269 251 236 225 210 200 202 194 181 189 205
267 245 261 277 275 271 179 261 249 189 111 96 81 72 68 37 18 2 352 350 344 338 339 343 342 341 342 340 336 322 318 309 305 300 300 310 312 296 284 272 252 237 228 208 203 200 199 184 199
256 283 265 253 200 287 284 197 266 167 197 233 251 356 327 336 348 341 335 328 329 333 341 340 344 343 343 339 320 312 314 302 308 305 302 306 317 309 300 282 263 249 240 222 216 211 208 199 200
300 343 15 48 96 260 234 192 256 215 215 220 244 284 305 322 323 332 336 338 333 339 347 344 344 341 344 338 326 315 307 305 310 309 306 310 310 298 303 300 281 260 249 233 231 219 217 214 211
23 49 19 1 3 249 258 191 248 266 242 197 195 247 300 317 320 330 338 339 337 338 338 339 342 337 338 337 328 313 301 295 296 301 301 303 301 297 289 294 279 272 266 249 239 224 221 216 211
344 109 146 224 246 287 335 237 258 306 78 122 120 344 328 322 312 310 316 322 324 331 330 332 336 331 331 331 321 311 302 292 295 297 296 291 289 291 291 281 278 279 278 272 249 234 227 217 212
55 76 154 138 328 287 279 288 302 348 32 29 14 2 324 314 313 306 311 319 323 329 326 320 325 325 326 325 318 310 304 299 299 298 297 287 293 299 294 286 280 282 278 271 257 243 236 221 214
70 132 86 107 210 277 291 280 262 253 267 304 318 313 311 312 313 311 310 316 319 322 321 318 322 318 319 319 313 313 305 302 299 297 295 293 296 297 289 286 282 277 276 270 258 258 250 231 223
42 72 96 130 167 193 269 272 234 209 221 249 285 299 297 298 303 307 311 317 322 327 327 325 325 324 321 318 315 310 309 309 307 298 293 291 298 292 281 278 273 270 271 269 259 257 257 246 236
169 176 159 168 243 205 215 268 272 194 210 243 282 305 310 305 304 309 314 325 331 331 328 325 320 317 315 316 316 309 310 313 311 304 298 294 295 293 282 278 267 267 272 270 258 257 255 252 242
Height
1517 1518 1519 1521 1526 1537 1539 1533 1527 1524 1524 1524 1524 1524 1527 1532 1536 1544 1542 1539 1539 1540 1541 1541 1543 1544 1545 1545 1546 1546 1546 1547 1547 1548 1549 1549 1549 1550 1550 1551 1551 1551 1551 1552 1552 1552 1552 1552 1552
1517 1518 1521 1521 1531 1543 1539 1530 1527 1524 1523 1523 1524 1526 1528 1533 1536 1538 1538 1539 1540 1540 1541 1541 1543 1544 1545 1546 1546 1546 1547 1547 1548 1549 1549 1550 1550 1550 1551 1551 1552 1552 1552 1553 1553 1553 1553 1553 1554
1517 1518 1520 1524 1533 1536 1533 1527 1525 1523 1523 1523 1526 1528 1531 1536 1537 1538 1538 1539 1540 1540 1541 1542 1543 1544 1545 1546 1546 1547 1547 1548 1548 1549 1550 1550 1550 1551 1551 1552 1552 1553 1553 1553 1554 1554 1554 1555 1555
1518 1519 1521 1528 1531 1530 1527 1525 1523 1523 1523 1524 1526 1531 1535 1539 1539 1539 1539 1539 1540 1540 1541 1541 1543 1544 1545 1545 1546 1547 1547 1548 1549 1549 1550 1550 1551 1551 1551 1552 1553 1553 1554 1554 1555 1555 1555 1556 1556
1517 1518 1525 1531 1530 1528 1525 1524 1523 1523 1525 1527 1527 1532 1536 1539 1539 1539 1539 1539 1539 1540 1541 1541 1542 1543 1544 1545 1546 1546 1547 1548 1548 1549 1549 1550 1551 1551 1552 1552 1553 1554 1554 1555 1556 1556 1556 1557 1557
1517 1519 1529 1531 1528 1526 1526 1525 1524 1525 1527 1528 1529 1533 1538 1539 1538 1538 1539 1539 1540 1540 1541 1541 1542 1543 1543 1544 1545 1546 1547 1548 1548 1549 1549 1550 1551 1551 1552 1552 1553 1554 1555 1555 1556 1557 1557 1557 1558
1518 1522 1527 1527 1528 1527 1526 1525 1526 1527 1528 1530 1531 1534 1537 1538 1539 1539 1539 1539 1540 1540 1541 1541 1542 1542 1543 1544 1544 1545 1546 1547 1548 1549 1549 1550 1551 1551 1552 1552 1553 1554 1555 1555 1556 1557 1557 1558 1558
1517 1522 1525 1528 1527 1527 1526 1526 1527 1528 1530 1532 1531 1534 1537 1538 1538 1539 1539 1540 1540 1540 1540 1540 1541 1541 1542 1543 1543 1544 1545 1546 1547 1548 1549 1549 1550 1551 1551 1552 1553 1553 1554 1555 1556 1557 1557 1558 1558
1518 1526 1529 1528 1527 1527 1526 1527 1528 1529 1530 1531 1532 1534 1536 1537 1537 1538 1538 1539 1539 1539 1539 1540 1540 1541 1541 1542 1543 1543 1544 1545 1546 1547 1548 1549 1549 1550 1551 1551 1552 1553 1554 1555 1556 1556 1557 1558 1558
1519 1528 1527 1527 1526 1526 1526 1527 1529 1529 1530 1532 1532 1534 1535 1535 1536 1536 1536 1537 1537 1538 1538 1539 1539 1540 1540 1540 1541 1542 1543 1543 1544 1545 1546 1547 1548 1549 1550 1550 1551 1552 1553 1554 1555 1556 1556 1557 1558
1521 1526 1527 1526 1526 1526 1527 1528 1529 1529 1531 1531 1532 1533 1534 1534 1535 1535 1536 1537 1537 1537 1538 1538 1538 1538 1538 1538 1539 1540 1541 1542 1543 1544 1545 1546 1546 1547 1548 1549 1550 1551 1552 1553 1554 1555 1555 1556 1557
1524 1526 1526 1527 1526 1527 1527 1528 1529 1529 1530 1531 1531 1532 1533 1533 1534 1535 1535 1536 1537 1537 1537 1537 1537 1537 1537 1538 1538 1538 1539 1540 1541 1542 1543 1544 1545 1545 1546 1547 1548 1549 1550 1551 1552 1553 1554 1555 1556
1525 1526 1527 1527 1527 1527 1528 1528 1529 1529 1530 1530 1530 1531 1532 1533 1534 1535 1535 1536 1536 1536 1536 1536 1536 1536 1536 1536 1536 1537 1537 1538 1539 1540 1541 1542 1543 1544 1544 1545 1547 1548 1548 1549 1550 1552 1552 1554 1555
1525 1526 1527 1527 1527 1527 1528 1528 1528 1528 1529 1529 1530 1531 1532 1533 1533 1534 1534 1534 1534 1535 1534 1534 1535 1534 1534 1534 1535 1535 1535 1536 1537 1538 1538 1539 1540 1542 1542 1543 1545 1546 1546 1547 1548 1550 1551 1552 1553
1525 1527 1528 1527 1527 1527 1528 1529 1528 1527 1528 1528 1529 1530 1532 1532 1533 1533 1533 1533 1533 1533 1534 1533 1533 1533 1533 1533 1533 1533 1533 1534 1535 1535 1536 1537 1538 1539 1540 1541 1542 1543 1544 1545 1546 1548 1549 1550 1551
1527 1530 1531 1528 1527 1526 1530 1529 1526 1526 1526 1527 1529 1530 1531 1532 1532 1532 1533 1533 1533 1532 1532 1532 1532 1532 1531 1531 1530 1531 1531 1531 1532 1532 1533 1534 1535 1536 1537 1538 1539 1541 1542 1543 1544 1545 1546 1548 1549
1532 1534 1531 1528 1526 1526 1527 1527 1526 1525 1525 1526 1528 1529 1530 1531 1532 1532 1532 1532 1532 1531 1531 1530 1530 1529 1529 1529 1528 1528 1528 1528 1529 1529 1530 1531 1532 1533 1534 1535 1536 1538 1539 1540 1541 1542 1544 1545 1546
1534 1533 1530 1528 1526 1526 1527 1526 1525 1524 1524 1525 1527 1529 1530 1530 1531 1531 1531 1531 1530 1530 1529 1528 1527 1527 1527 1526 1525 1525 1526 1526 1526 1527 1527 1528 1529 1530 1531 1532 1533 1534 1536 1537 1538 1539 1541 1542 1543
1529 1530 1529 1527 1525 1527 1526 1524 1524 1524 1524 1526 1527 1528 1529 1530 1531 1531 1530 1529 1528 1528 1527 1527 1525 1525 1524 1523 1522 1521 1521 1522 1523 1524 1524 1524 1525 1526 1527 1528 1529 1531 1532 1533 1535 1536 1537 1539 1540
1529 1530 1530 1528 1526 1526 1526 1524 1522 1523 1524 1525 1526 1527 1528 1529 1529 1529 1528 1527 1527 1526 1525 1524 1523 1522 1522 1521 1520 1519 1519 1519 1519 1520 1520 1521 1521 1522 1524 1524 1525 1527 1528 1530 1531 1532 1533 1535 1537
1529 1531 1531 1530 1527 1525 1526 1526 1525 1525 1525 1526 1527 1527 1528 1528 1528 1527 1527 1526 1525 1524 1523 1522 1521 1520 1519 1518 1517 1516 1516 1515 1515 1515 1516 1516 1517 1518 1519 1520 1521 1522 1524 1525 1526 1528 1529 1531 1533
1531 1529 1528 1528 1530 1532 1529 1532 1527 1526 1526 1526 1527 1527 1527 1527 1527 1526 1526 1525 1523 1522 1521 1520 1519 1518 1516 1515 1514 1514 1512 1511 1511 1511 1512 1512 1513 1514 1514 1516 1517 1518 1519 1520 1522 1524 1525 1527 1528
1530 1528 1528 1528 1530 1534 1532 1534 1529 1526 1527 1527 1527 1527 1527 1526 1526 1525 1525 1524 1522 1521 1519 1518 1516 1515 1514 1513 1512 1511 1509 1509 1508 1508 1508 1508 1508 1509 1510 1511 1512 1513 1514 1516 1517 1519 1521 1522 1524
1530 1529 1528 1530 1533 1536 1532 1534 1529 1529 1527 1526 1527 1527 1526 1525 1525 1524 1523 1522 1521 1519 1517 1516 1514 1512 1511 1510 1509 1507 1506 1506 1505 1505 1503 1503 1504 1505 1505 1506 1507 1508 1509 1511 1512 1514 1516 1518 1520
1532 1534 1536 1535 1538 1534 1531 1533 1532 1528 1526 1525 1526 1525 1525 1524 1523 1522 1521 1520 1518 1516 1515 1513 1511 1509 1508 1507 1506 1504 1504 1503 1502 1501 1500 1500 1500 1500 1500 1502 1503 1503 1504 1506 1508 1509 1511 1512 1514
1536 1536 1540 1540 1539 1537 1536 1534 1532 1528 1526 1525 1525 1525 1524 1523 1522 1521 1519 1518 1516 1514 1512 1510 1508 1506 1505 1504 1503 1501 1501 1499 1498 1497 1496 1496 1496 1496 1496 1497 1498 1498 1499 1501 1503 1504 1506 1507 1509
1537 1540 1540 1545 1547 1547 1539 1537 1531 1527 1527 1526 1525 1524 1523 1522 1521 1520 1518 1516 1514 1512 1510 1508 1506 1504 1502 1501 1499 1498 1497 1495 1494 1493 1493 1492 1492 1492 1492 1492 1493 1493 1494 1495 1497 1498 1500 1502 1503
1539 1541 1545 1546 1546 1544 1540 1540 1534 1529 1527 1526 1525 1523 1522 1521 1520 1518 1516 1514 1512 1509 1508 1506 1504 1501 1499 1498 1496 1494 1492 1491 1490 1489 1489 1488 1488 1488 1487 1487 1487 1488 1489 1490 1492 1493 1494 1496 1497
1543 1543 1545 1548 1548 1548 1545 1538 1528 1526 1525 1525 1524 1523 1521 1520 1518 1516 1514 1512 1509 1507 1505 1503 1501 1498 1497 1495 1492 1491 1488 1487 1486 1485 1485 1484 1483 1483 1482 1482 1482 1483 1484 1485 1486 1487 1489 1490 1492
1543 1544 1546 1547 1548 1550 1549 1540 1526 1525 1524 1524 1523 1521 1520 1518 1516 1514 1512 1509 1506 1504 1502 1500 1498 1496 1494 1491 1489 1487 1485 1484 1482 1481 1480 1479 1479 1479 1478 1477 1477 1478 1479 1479 1480 1481 1483 1484 1486